Simultaneous Nadir Overpasses (SNOs) Predictions

Prediction of SNOs between AQUA and METOP-A Satellite Orbit:

Table of predicted SNOs for the next 14.0 days since TLE Epoch: 7/10/2021
Index Date (AQUA) Time (AQUA) Lat,Lon (AQUA) SZA (AQUA ) Date (METOP-A) Time (METOP-A) Lat,Lon (METOP-A) SZA (METOP-A ) Distance(km) Time Diff (sec)
1 07/11/2021 23:21:40 77.53, 172.98 56.18 07/11/2021 23:20:35 77.52, 173.05 56.19 1.79 65
2 07/12/2021 00:11:06 -77.54, -19.43 123.81 07/12/2021 00:11:16 -77.54, -19.56 123.81 3.26 10
3 07/12/2021 01:00:41 77.89, 146.73 56.63 07/12/2021 01:01:48 77.89, 149.37 56.43 61.67 67
4 07/14/2021 18:55:55 77.52,-120.53 56.58 07/14/2021 18:54:55 77.53,-120.56 56.62 2.14 60
5 07/14/2021 19:45:22 -77.57, 46.88 123.35 07/14/2021 19:45:36 -77.55, 46.84 123.37 2.76 14
6 07/17/2021 14:30:12 77.55, -54.25 57.09 07/17/2021 14:29:16 77.54, -54.18 57.10 1.94 56
7 07/17/2021 15:19:38 -77.56, 113.36 122.89 07/17/2021 15:19:57 -77.56, 113.23 122.89 3.05 19
8 07/20/2021 10:04:28 77.55, 12.20 57.60 07/20/2021 10:03:37 77.55, 12.19 57.62 0.29 51
9 07/20/2021 10:53:55 -77.60, 179.63 122.33 07/20/2021 10:54:18 -77.57, 179.61 122.36 3.34 23
10 07/23/2021 05:38:43 77.55, 78.63 58.16 07/23/2021 05:37:57 77.56, 78.56 58.19 1.93 46
11 07/23/2021 06:28:10 -77.60,-113.93 121.77 07/23/2021 06:28:38 -77.58,-114.02 121.79 3.05 28



Historial Predications of SNOs between AQUA and METOP-A
